Stations météo

réclame
Mon MeteoGroup
St-Hubert, Belgique (6476): Température de l'air & dewpoint: 18.08.2019 00:00:00 - 24.08.2019 00:00:00 (CEST)St-Hubert, Belgique (6476): Vitesse du vent & gusts: 18.08.2019 00:00:00 - 24.08.2019 00:00:00 (CEST)St-Hubert, Belgique (6476): Direction du vent: 18.08.2019 00:00:00 - 24.08.2019 00:00:00 (CEST)St-Hubert, Belgique (6476): reduced air pressure: 18.08.2019 00:00:00 - 24.08.2019 00:00:00 (CEST)St-Hubert, Belgique (6476): visibility: 18.08.2019 00:00:00 - 24.08.2019 00:00:00 (CEST)
Date & Time tt [°C] td [°C] ff [km/h] ff [knt] fx [km/h] fx [knt] dd ppp [hPa] vv [km]
24.08.2019 00:00:00 17,6 9,3 14 8 22 12 E 1022,7 45
23.08.2019 23:00:00 16,4 9,9 11 6 - - E 1023,2 45
23.08.2019 22:00:00 17,4 9,9 11 6 14 8 E 1023,0 40
23.08.2019 21:00:00 17,4 10,2 7 4 11 6 E 1023,2 45
23.08.2019 20:00:00 20,4 11,3 7 4 - - E 1022,4 40
23.08.2019 19:00:00 22,9 9,5 11 6 22 12 E 1022,1 35
23.08.2019 18:00:00 23,5 10,4 14 8 22 12 ENE 1022,1 35
23.08.2019 17:00:00 24,0 8,0 7 4 - - - 1022,4 30
23.08.2019 16:00:00 23,8 6,9 7 4 25 14 - 1022,9 30
23.08.2019 15:00:00 22,9 7,8 14 8 25 14 ESE 1023,4 29
23.08.2019 14:00:00 22,0 7,8 7 4 - - - 1024,0 27
23.08.2019 13:00:00 21,8 10,7 14 8 25 14 SE 1024,3 30
23.08.2019 12:00:00 20,8 10,3 11 6 22 12 ESE 1025,1 30
23.08.2019 11:00:00 20,5 9,6 11 6 - - ESE 1025,1 35
23.08.2019 10:00:00 18,5 10,2 7 4 14 8 E 1025,6 35
23.08.2019 09:00:00 15,3 9,4 11 6 14 8 NE 1026,2 30
23.08.2019 08:00:00 14,5 9,2 14 8 - - NE 1026,1 30
23.08.2019 07:00:00 14,2 8,9 14 8 18 10 ENE 1026,1 29
23.08.2019 06:00:00 14,1 9,1 14 8 18 10 ENE 1026,2 30
23.08.2019 05:00:00 13,1 9,0 14 8 - - ENE 1026,7 30
23.08.2019 04:00:00 13,6 9,1 14 8 18 10 ENE 1026,5 35
23.08.2019 03:00:00 14,8 9,0 11 6 14 8 NE 1026,4 35
23.08.2019 02:00:00 12,1 9,4 14 8 - - ENE 1027,2 40
23.08.2019 01:00:00 13,6 9,4 11 6 14 8 NE 1026,9 35
23.08.2019 00:00:00 14,0 9,1 11 6 14 8 NE 1026,8 40
22.08.2019 23:00:00 13,4 9,2 11 6 - - NE 1026,8 45
22.08.2019 22:00:00 14,9 9,8 7 4 11 6 NE 1026,4 45
22.08.2019 21:00:00 16,3 9,9 4 2 11 6 NE 1025,7 45
22.08.2019 20:00:00 21,0 8,6 7 4 - - NNW 1024,4 35
22.08.2019 19:00:00 21,8 9,6 7 4 14 8 NNW 1024,0 30
22.08.2019 18:00:00 22,4 9,8 4 2 14 8 - 1023,9 30
22.08.2019 17:00:00 21,8 8,1 4 2 - - NW 1024,2 30
22.08.2019 16:00:00 21,8 8,0 7 4 14 8 SW 1024,3 40
22.08.2019 15:00:00 21,0 7,9 4 2 14 8 - 1025,0 30
22.08.2019 14:00:00 21,0 8,4 4 2 - - - 1025,1 30
22.08.2019 13:00:00 19,7 7,5 4 2 18 10 - 1025,7 35
22.08.2019 12:00:00 19,2 8,3 7 4 14 8 S 1025,9 30
22.08.2019 11:00:00 18,6 9,0 7 4 - - SSE 1026,1 30
22.08.2019 10:00:00 17,3 8,1 7 4 14 8 SE 1026,3 30
22.08.2019 09:00:00 16,6 8,4 11 6 14 8 SE 1026,1 40
22.08.2019 08:00:00 14,8 7,3 11 6 - - ESE 1026,2 30
22.08.2019 07:00:00 13,4 6,9 11 6 14 8 ESE 1026,2 45
22.08.2019 06:00:00 13,1 7,3 11 6 14 8 SE 1026,2 40
22.08.2019 05:00:00 12,4 6,8 11 6 - - ESE 1026,6 45
22.08.2019 04:00:00 13,3 7,1 11 6 14 8 ESE 1026,4 45
22.08.2019 03:00:00 13,4 6,8 11 6 14 8 SE 1026,6 45
22.08.2019 02:00:00 13,7 7,1 11 6 - - ESE 1026,7 45
22.08.2019 01:00:00 12,7 7,1 11 6 14 8 E 1027,1 45
22.08.2019 00:00:00 13,3 6,3 7 4 11 6 E 1027,2 45
21.08.2019 23:00:00 13,0 6,9 7 4 - - ESE 1027,2 45
21.08.2019 22:00:00 12,5 8,7 7 4 14 8 ENE 1027,5 40
21.08.2019 21:00:00 14,0 9,4 11 6 14 8 ENE 1026,8 40
21.08.2019 20:00:00 17,6 10,2 7 4 - - ENE 1025,8 35
21.08.2019 19:00:00 18,7 7,6 7 4 14 8 E 1025,8 35
21.08.2019 18:00:00 18,9 7,1 4 2 14 8 NE 1026,2 35
21.08.2019 17:00:00 19,4 7,5 4 2 - - - 1026,1 30
21.08.2019 16:00:00 18,9 6,6 7 4 14 8 WSW 1026,4 40
21.08.2019 15:00:00 18,4 6,6 4 2 14 8 - 1026,8 30
21.08.2019 14:00:00 18,4 6,6 7 4 - - S 1027,2 30
21.08.2019 13:00:00 17,8 6,7 7 4 36 19 - 1027,8 27
21.08.2019 12:00:00 17,1 7,6 7 4 14 8 S 1028,2 29
21.08.2019 11:00:00 15,8 7,0 7 4 - - SSW 1028,6 28
21.08.2019 10:00:00 15,5 9,8 7 4 14 8 SSE 1028,5 26
21.08.2019 09:00:00 14,3 9,2 7 4 14 8 SE 1028,6 35
21.08.2019 08:00:00 11,9 8,1 11 6 - - ESE 1028,8 27
21.08.2019 07:00:00 9,7 7,3 11 6 11 6 ESE 1029,0 28
21.08.2019 06:00:00 9,9 7,4 11 6 11 6 ESE 1028,7 28
21.08.2019 05:00:00 9,4 7,8 7 4 - - ENE 1028,7 22
21.08.2019 04:00:00 7,5 6,6 7 4 7 4 NE 1029,3 20
21.08.2019 03:00:00 9,4 7,1 4 2 4 2 NNE 1028,8 29
21.08.2019 02:00:00 10,4 6,8 4 2 - - NW 1028,7 30
21.08.2019 01:00:00 12,5 7,1 7 4 11 6 NNW 1028,0 35
21.08.2019 00:00:00 12,2 7,1 7 4 11 6 NW 1027,9 35
20.08.2019 23:00:00 12,1 6,9 4 2 - - NW 1027,5 35
20.08.2019 22:00:00 11,6 7,3 4 2 7 4 WNW 1027,3 30
20.08.2019 21:00:00 13,0 8,8 0 0 14 8 N 1026,5 40
20.08.2019 20:00:00 14,9 8,6 11 6 - - NW 1025,5 40
20.08.2019 19:00:00 16,7 7,6 11 6 22 12 W 1024,7 40
20.08.2019 18:00:00 17,5 8,3 11 6 29 16 WSW 1023,9 35
20.08.2019 17:00:00 16,9 9,6 7 4 - - WSW 1024,2 35
20.08.2019 16:00:00 16,4 8,7 7 4 22 12 W 1024,0 35
20.08.2019 15:00:00 16,3 9,5 7 4 22 12 - 1023,6 30
20.08.2019 14:00:00 15,7 9,9 7 4 - - W 1023,4 30
20.08.2019 13:00:00 15,7 9,4 11 6 18 10 WNW 1023,5 27
20.08.2019 12:00:00 14,6 9,6 7 4 14 8 WSW 1023,9 30
20.08.2019 11:00:00 13,5 9,2 7 4 - - WNW 1023,7 30
20.08.2019 10:00:00 12,7 9,6 4 2 7 4 W 1023,4 21
20.08.2019 09:00:00 12,2 9,1 4 2 7 4 SW 1023,5 20
20.08.2019 08:00:00 10,4 8,6 4 2 - - W 1023,5 16
20.08.2019 07:00:00 8,6 6,8 4 2 7 4 NW 1023,4 19
20.08.2019 06:00:00 9,0 6,9 4 2 7 4 WNW 1023,1 24
20.08.2019 05:00:00 9,4 6,8 4 2 - - NW 1022,9 27
20.08.2019 04:00:00 9,7 6,9 7 4 7 4 WNW 1022,8 25
20.08.2019 03:00:00 9,9 8,0 4 2 7 4 WNW 1022,6 29
20.08.2019 02:00:00 11,5 8,4 7 4 - - NW 1022,3 28
20.08.2019 01:00:00 10,3 7,9 0 0 4 2 N 1022,8 35
20.08.2019 00:00:00 11,0 8,0 4 2 11 6 W 1022,1 40
19.08.2019 23:00:00 11,6 8,1 4 2 - - W 1021,6 40
19.08.2019 22:00:00 12,3 8,1 4 2 7 4 SW 1020,9 28
19.08.2019 21:00:00 12,7 8,2 7 4 18 10 SSW 1020,3 29
19.08.2019 20:00:00 15,8 8,0 11 6 - - SW 1019,1 28
19.08.2019 19:00:00 16,3 8,1 11 6 25 14 SW 1018,9 35
19.08.2019 18:00:00 17,5 9,5 14 8 29 16 SW 1018,5 28
19.08.2019 17:00:00 16,3 8,3 14 8 - - SW 1018,7 35
19.08.2019 16:00:00 16,5 7,8 14 8 32 18 SW 1018,5 40
19.08.2019 15:00:00 17,3 8,6 14 8 36 19 WSW 1018,1 35
19.08.2019 14:00:00 17,3 8,8 14 8 - - SW 1017,7 30
19.08.2019 13:00:00 16,8 9,0 14 8 32 18 WSW 1017,4 35
19.08.2019 12:00:00 16,0 8,7 14 8 29 16 SW 1017,2 29
19.08.2019 11:00:00 14,8 9,5 11 6 - - SW 1017,3 35
19.08.2019 10:00:00 13,0 10,7 11 6 22 12 SW 1017,2 18
19.08.2019 09:00:00 11,2 9,5 7 4 14 8 WSW 1017,5 16
19.08.2019 08:00:00 9,9 8,8 7 4 - - WSW 1017,4 20
19.08.2019 07:00:00 8,7 7,7 7 4 14 8 SW 1016,9 18
19.08.2019 06:00:00 9,2 8,2 7 4 14 8 SW 1016,5 18
19.08.2019 05:00:00 9,9 9,1 7 4 - - SW 1016,0 15
19.08.2019 04:00:00 9,6 8,9 7 4 14 8 WSW 1015,8 -
19.08.2019 03:00:00 11,6 10,4 7 4 14 8 SW 1015,2 29
19.08.2019 02:00:00 11,6 10,6 7 4 - - S 1015,0 30
19.08.2019 01:00:00 10,9 10,3 0 0 7 4 N 1014,6 18
19.08.2019 00:00:00 11,7 10,5 4 2 11 6 W 1013,5 24
18.08.2019 23:00:00 12,8 11,9 7 4 - - WSW 1013,0 35
18.08.2019 22:00:00 13,2 12,2 7 4 11 6 SW 1012,1 45
18.08.2019 21:00:00 13,2 12,0 7 4 18 10 SW 1011,5 45
18.08.2019 20:00:00 15,5 13,1 7 4 - - SW 1010,6 45
18.08.2019 19:00:00 16,3 13,4 11 6 25 14 WSW 1010,3 35
18.08.2019 18:00:00 15,3 13,2 14 8 32 18 W 1010,2 45
18.08.2019 17:00:00 16,1 14,1 18 10 - - W 1009,2 45
18.08.2019 16:00:00 17,5 16,0 22 12 36 19 WSW 1007,7 45
18.08.2019 15:00:00 17,7 16,4 18 10 43 23 SW 1006,6 8
18.08.2019 14:00:00 17,3 16,3 18 10 - - SW 1006,9 8
18.08.2019 13:00:00 17,4 16,0 25 14 50 27 SW 1005,9 30
18.08.2019 12:00:00 17,2 16,1 25 14 50 27 SW 1005,6 21
18.08.2019 11:00:00 17,0 15,7 25 14 - - SSW 1005,0 45
18.08.2019 10:00:00 17,0 15,8 25 14 47 25 SSW 1004,5 29
18.08.2019 09:00:00 16,2 15,4 22 12 40 21 SSW 1004,9 17
18.08.2019 08:00:00 15,2 14,5 18 10 - - SSW 1005,8 1,9
18.08.2019 07:00:00 14,2 13,6 14 8 22 12 S 1006,8 2,7
18.08.2019 06:00:00 13,9 13,2 7 4 18 10 SSW 1007,6 -
18.08.2019 05:00:00 14,2 13,6 7 4 - - SSW 1008,1 11
18.08.2019 04:00:00 14,4 13,7 7 4 18 10 WSW 1008,4 15
18.08.2019 03:00:00 14,5 13,8 11 6 32 18 WSW 1008,9 10
18.08.2019 02:00:00 15,7 15,1 11 6 - - SSW 1008,4 10
18.08.2019 01:00:00 15,6 15,0 14 8 25 14 S 1008,7 6
18.08.2019 00:00:00 15,5 14,9 14 8 22 12 S 1009,1 2,7

tt = Température de l'air
td = dewpoint
ff = Vitesse du vent
fx = gusts
dd = Direction du vent
ppp = reduced air pressure
vv = visibility

stations d'obs. à proximité